Year,Month,Day,Hour,Minute,Value (Times are PST for temperature in C)
2013,04,26,00,00,8.80
2013,04,26,00,01,8.80
2013,04,26,00,02,8.80
2013,04,26,00,03,8.80
2013,04,26,00,04,8.80
2013,04,26,00,05,8.80
2013,04,26,00,06,8.80
2013,04,26,00,07,8.80
2013,04,26,00,08,8.80
2013,04,26,00,09,8.70
2013,04,26,00,10,8.70
2013,04,26,00,11,8.70
2013,04,26,00,12,8.70
2013,04,26,00,13,8.70
2013,04,26,00,14,8.70
2013,04,26,00,15,8.70
2013,04,26,00,16,8.70
2013,04,26,00,17,8.70
2013,04,26,00,18,8.70
2013,04,26,00,19,8.70
2013,04,26,00,20,8.70
2013,04,26,00,21,8.60
2013,04,26,00,22,8.60
2013,04,26,00,23,8.60
2013,04,26,00,24,8.60
2013,04,26,00,25,8.60
2013,04,26,00,26,8.50
2013,04,26,00,27,8.50
2013,04,26,00,28,8.50
2013,04,26,00,29,8.50
2013,04,26,00,30,8.50
2013,04,26,00,31,8.40
2013,04,26,00,32,8.40
2013,04,26,00,33,8.40
2013,04,26,00,34,8.30
2013,04,26,00,35,8.30
2013,04,26,00,36,8.30
2013,04,26,00,37,8.20
2013,04,26,00,38,8.20
2013,04,26,00,39,8.20
2013,04,26,00,40,8.20
2013,04,26,00,41,8.20
2013,04,26,00,42,8.20
2013,04,26,00,43,8.10
2013,04,26,00,44,8.10
2013,04,26,00,45,8.10
2013,04,26,00,46,8.10
2013,04,26,00,47,8.10
2013,04,26,00,48,8.10
2013,04,26,00,49,8.10
2013,04,26,00,50,8.10
2013,04,26,00,51,8.10
2013,04,26,00,52,8.10
2013,04,26,00,53,8.10
2013,04,26,00,54,8.10
2013,04,26,00,55,8.10
2013,04,26,00,56,8.00
2013,04,26,00,57,8.10
2013,04,26,00,58,8.10
2013,04,26,00,59,8.10
2013,04,26,01,00,8.10
2013,04,26,01,01,8.10
2013,04,26,01,02,8.10
2013,04,26,01,03,8.10
2013,04,26,01,04,8.10
2013,04,26,01,05,8.10
2013,04,26,01,06,8.10
2013,04,26,01,07,8.10
2013,04,26,01,08,8.10
2013,04,26,01,09,8.10
2013,04,26,01,10,8.10
2013,04,26,01,11,8.10
2013,04,26,01,12,8.10
2013,04,26,01,13,8.10
2013,04,26,01,14,8.10
2013,04,26,01,15,8.10
2013,04,26,01,16,8.00
2013,04,26,01,17,8.00
2013,04,26,01,18,8.00
2013,04,26,01,19,8.00
2013,04,26,01,20,8.00
2013,04,26,01,21,8.00
2013,04,26,01,22,8.00
2013,04,26,01,23,8.00
2013,04,26,01,24,7.90
2013,04,26,01,25,7.90
2013,04,26,01,26,7.90
2013,04,26,01,27,7.90
2013,04,26,01,28,7.90
2013,04,26,01,29,7.90
2013,04,26,01,30,7.90
2013,04,26,01,31,7.90
2013,04,26,01,32,7.90
2013,04,26,01,33,7.90
2013,04,26,01,34,7.90
2013,04,26,01,35,7.80
2013,04,26,01,36,7.80
2013,04,26,01,37,7.80
2013,04,26,01,38,7.80
2013,04,26,01,39,7.80
2013,04,26,01,40,7.80
2013,04,26,01,41,7.80
2013,04,26,01,42,7.80
2013,04,26,01,43,7.80
2013,04,26,01,44,7.80
2013,04,26,01,45,7.80
2013,04,26,01,46,7.70
2013,04,26,01,47,7.70
2013,04,26,01,48,7.70
2013,04,26,01,49,7.70
2013,04,26,01,50,7.70
2013,04,26,01,51,7.60
2013,04,26,01,52,7.60
2013,04,26,01,53,7.60
2013,04,26,01,54,7.60
2013,04,26,01,55,7.60
2013,04,26,01,56,7.50
2013,04,26,01,57,7.50
2013,04,26,01,58,7.50
2013,04,26,01,59,7.50
2013,04,26,02,00,7.50
2013,04,26,02,01,7.40
2013,04,26,02,02,7.40
2013,04,26,02,03,7.40
2013,04,26,02,04,7.40
2013,04,26,02,05,7.40
2013,04,26,02,06,7.30
2013,04,26,02,07,7.30
2013,04,26,02,08,7.30
2013,04,26,02,09,7.30
2013,04,26,02,10,7.30
2013,04,26,02,11,7.30
2013,04,26,02,12,7.30
2013,04,26,02,13,7.30
2013,04,26,02,14,7.20
2013,04,26,02,15,7.20
2013,04,26,02,16,7.20
2013,04,26,02,17,7.20
2013,04,26,02,18,7.10
2013,04,26,02,19,7.10
2013,04,26,02,20,7.10
2013,04,26,02,21,7.10
2013,04,26,02,22,7.10
2013,04,26,02,23,7.10
2013,04,26,02,24,7.10
2013,04,26,02,25,7.00
2013,04,26,02,26,7.00
2013,04,26,02,27,7.00
2013,04,26,02,28,7.00
2013,04,26,02,29,7.00
2013,04,26,02,30,7.00
2013,04,26,02,31,7.00
2013,04,26,02,32,7.00
2013,04,26,02,33,7.00
2013,04,26,02,34,6.90
2013,04,26,02,35,6.90
2013,04,26,02,36,6.90
2013,04,26,02,37,6.90
2013,04,26,02,38,6.80
2013,04,26,02,39,6.80
2013,04,26,02,40,6.80
2013,04,26,02,41,6.80
2013,04,26,02,42,6.80
2013,04,26,02,43,6.80
2013,04,26,02,44,6.80
2013,04,26,02,45,6.80
2013,04,26,02,46,6.80
2013,04,26,02,47,6.80
2013,04,26,02,48,6.80
2013,04,26,02,49,6.80
2013,04,26,02,50,6.80
2013,04,26,02,51,6.80
2013,04,26,02,52,6.70
2013,04,26,02,53,6.70
2013,04,26,02,54,6.70
2013,04,26,02,55,6.70
2013,04,26,02,56,6.70
2013,04,26,02,57,6.70
2013,04,26,02,58,6.70
2013,04,26,02,59,6.70
2013,04,26,03,00,6.60
2013,04,26,03,01,6.60
2013,04,26,03,02,6.60
2013,04,26,03,03,6.60
2013,04,26,03,04,6.60
2013,04,26,03,05,6.60
2013,04,26,03,06,6.60
2013,04,26,03,07,6.60
2013,04,26,03,08,6.60
2013,04,26,03,09,6.60
2013,04,26,03,10,6.60
2013,04,26,03,11,6.60
2013,04,26,03,12,6.60
2013,04,26,03,13,6.60
2013,04,26,03,14,6.50
2013,04,26,03,15,6.40
2013,04,26,03,16,6.40
2013,04,26,03,17,6.40
2013,04,26,03,18,6.40
2013,04,26,03,19,6.40
2013,04,26,03,20,6.40
2013,04,26,03,21,6.40
2013,04,26,03,22,6.40
2013,04,26,03,23,6.40
2013,04,26,03,24,6.40
2013,04,26,03,25,6.40
2013,04,26,03,26,6.40
2013,04,26,03,27,6.40
2013,04,26,03,28,6.40
2013,04,26,03,29,6.40
2013,04,26,03,30,6.30
2013,04,26,03,31,6.30
2013,04,26,03,32,6.30
2013,04,26,03,33,6.30
2013,04,26,03,34,6.30
2013,04,26,03,35,6.30
2013,04,26,03,36,6.30
2013,04,26,03,37,6.30
2013,04,26,03,38,6.30
2013,04,26,03,39,6.30
2013,04,26,03,40,6.30
2013,04,26,03,41,6.30
2013,04,26,03,42,6.30
2013,04,26,03,43,6.30
2013,04,26,03,44,6.30
2013,04,26,03,45,6.30
2013,04,26,03,46,6.30
2013,04,26,03,47,6.30
2013,04,26,03,48,6.30
2013,04,26,03,49,6.30
2013,04,26,03,50,6.30
2013,04,26,03,51,6.30
2013,04,26,03,52,6.30
2013,04,26,03,53,6.30
2013,04,26,03,54,6.30
2013,04,26,03,55,6.30
2013,04,26,03,56,6.30
2013,04,26,03,57,6.30
2013,04,26,03,58,6.30
2013,04,26,03,59,6.20
2013,04,26,04,00,6.20
2013,04,26,04,01,6.20
2013,04,26,04,02,6.20
2013,04,26,04,03,6.20
2013,04,26,04,04,6.20
2013,04,26,04,05,6.20
2013,04,26,04,06,6.20
2013,04,26,04,07,6.20
2013,04,26,04,08,6.20
2013,04,26,04,09,6.20
2013,04,26,04,10,6.20
2013,04,26,04,11,6.20
2013,04,26,04,12,6.20
2013,04,26,04,13,6.20
2013,04,26,04,14,6.20
2013,04,26,04,15,6.20
2013,04,26,04,16,6.20
2013,04,26,04,17,6.20
2013,04,26,04,18,6.20
2013,04,26,04,19,6.20
2013,04,26,04,20,6.20
2013,04,26,04,21,6.20
2013,04,26,04,22,6.20
2013,04,26,04,23,6.20
2013,04,26,04,24,6.20
2013,04,26,04,25,6.20
2013,04,26,04,26,6.20
2013,04,26,04,27,6.20
2013,04,26,04,28,6.20
2013,04,26,04,29,6.20
2013,04,26,04,30,6.20
2013,04,26,04,31,6.20
2013,04,26,04,32,6.20
2013,04,26,04,33,6.20
2013,04,26,04,34,6.20
2013,04,26,04,35,6.20
2013,04,26,04,36,6.20
2013,04,26,04,37,6.20
2013,04,26,04,38,6.20
2013,04,26,04,39,6.20
2013,04,26,04,40,6.10
2013,04,26,04,41,6.10
2013,04,26,04,42,6.10
2013,04,26,04,43,6.10
2013,04,26,04,44,6.10
2013,04,26,04,45,6.10
2013,04,26,04,46,6.10
2013,04,26,04,47,6.10
2013,04,26,04,48,6.10
2013,04,26,04,49,6.10
2013,04,26,04,50,6.10
2013,04,26,04,51,6.00
2013,04,26,04,52,6.00
2013,04,26,04,53,6.00
2013,04,26,04,54,6.00
2013,04,26,04,55,6.00
2013,04,26,04,56,6.00
2013,04,26,04,57,5.90
2013,04,26,04,58,5.90
2013,04,26,04,59,5.90
2013,04,26,05,00,5.90
2013,04,26,05,01,5.90
2013,04,26,05,02,5.90
2013,04,26,05,03,5.90
2013,04,26,05,04,5.90
2013,04,26,05,05,5.90
2013,04,26,05,06,5.90
2013,04,26,05,07,5.90
2013,04,26,05,08,5.80
2013,04,26,05,09,5.80
2013,04,26,05,10,5.80
2013,04,26,05,11,5.80
2013,04,26,05,12,5.80
2013,04,26,05,13,5.80
2013,04,26,05,14,5.80
2013,04,26,05,15,5.80
2013,04,26,05,16,5.80
2013,04,26,05,17,5.80
2013,04,26,05,18,5.80
2013,04,26,05,19,5.70
2013,04,26,05,20,5.70
2013,04,26,05,21,5.70
2013,04,26,05,22,5.70
2013,04,26,05,23,5.70
2013,04,26,05,24,5.70
2013,04,26,05,25,5.70
2013,04,26,05,26,5.70
2013,04,26,05,27,5.70
2013,04,26,05,28,5.70
2013,04,26,05,29,5.70
2013,04,26,05,30,5.70
2013,04,26,05,31,5.70
2013,04,26,05,32,5.70
2013,04,26,05,33,5.70
2013,04,26,05,34,5.70
2013,04,26,05,35,5.70
2013,04,26,05,36,5.70
2013,04,26,05,37,5.70
2013,04,26,05,38,5.70
2013,04,26,05,39,5.70
2013,04,26,05,40,5.70
2013,04,26,05,41,5.70
2013,04,26,05,42,5.70
2013,04,26,05,43,5.70
2013,04,26,05,44,5.70
2013,04,26,05,45,5.70
2013,04,26,05,46,5.70
2013,04,26,05,47,5.70
2013,04,26,05,48,5.70
2013,04,26,05,49,5.70
2013,04,26,05,50,5.70
2013,04,26,05,51,5.70
2013,04,26,05,52,5.70
2013,04,26,05,53,5.70
2013,04,26,05,54,5.70
2013,04,26,05,55,5.80
2013,04,26,05,56,5.80
2013,04,26,05,57,5.80
2013,04,26,05,58,5.80
2013,04,26,05,59,5.80
2013,04,26,06,00,5.80
2013,04,26,06,01,5.90
2013,04,26,06,02,5.90
2013,04,26,06,03,5.90
2013,04,26,06,04,5.90
2013,04,26,06,05,5.90
2013,04,26,06,06,5.80
2013,04,26,06,07,5.80
2013,04,26,06,08,5.80
2013,04,26,06,09,5.90
2013,04,26,06,10,5.90
2013,04,26,06,11,5.90
2013,04,26,06,12,5.90
2013,04,26,06,13,5.90
2013,04,26,06,14,6.00
2013,04,26,06,15,6.00
2013,04,26,06,16,6.00
2013,04,26,06,17,6.00
2013,04,26,06,18,6.00
2013,04,26,06,19,6.00
2013,04,26,06,20,6.10
2013,04,26,06,21,6.10
2013,04,26,06,22,6.10
2013,04,26,06,23,6.10
2013,04,26,06,24,6.10
2013,04,26,06,25,6.10
2013,04,26,06,26,6.20
2013,04,26,06,27,6.20
2013,04,26,06,28,6.20
2013,04,26,06,29,6.20
2013,04,26,06,30,6.20
2013,04,26,06,31,6.20
2013,04,26,06,32,6.20
2013,04,26,06,33,6.30
2013,04,26,06,34,6.40
2013,04,26,06,35,6.40
2013,04,26,06,36,6.40
2013,04,26,06,37,6.50
2013,04,26,06,38,6.60
2013,04,26,06,39,6.60
2013,04,26,06,40,6.60
2013,04,26,06,41,6.60
2013,04,26,06,42,6.60
2013,04,26,06,43,6.60
2013,04,26,06,44,6.60
2013,04,26,06,45,6.60
2013,04,26,06,46,6.60
2013,04,26,06,47,6.60
2013,04,26,06,48,6.60
2013,04,26,06,49,6.60
2013,04,26,06,50,6.60
2013,04,26,06,51,6.60
2013,04,26,06,52,6.60
2013,04,26,06,53,6.60
2013,04,26,06,54,6.60
2013,04,26,06,55,6.60
2013,04,26,06,56,6.60
2013,04,26,06,57,6.60
2013,04,26,06,58,6.60
2013,04,26,06,59,6.60
2013,04,26,07,00,6.60
2013,04,26,07,01,6.60
2013,04,26,07,02,6.60
2013,04,26,07,03,6.60
2013,04,26,07,04,6.60
2013,04,26,07,05,6.60
2013,04,26,07,06,6.60
2013,04,26,07,07,6.70
2013,04,26,07,08,6.70
2013,04,26,07,09,6.80
2013,04,26,07,10,6.80
2013,04,26,07,11,6.80
2013,04,26,07,12,6.80
2013,04,26,07,13,6.80
2013,04,26,07,14,6.90
2013,04,26,07,15,7.00
2013,04,26,07,16,7.00
2013,04,26,07,17,7.00
2013,04,26,07,18,7.00
2013,04,26,07,19,7.00
2013,04,26,07,20,7.10
2013,04,26,07,21,7.10
2013,04,26,07,22,7.20
2013,04,26,07,23,7.20
2013,04,26,07,24,7.30
2013,04,26,07,25,7.30
2013,04,26,07,26,7.30
2013,04,26,07,27,7.30
2013,04,26,07,28,7.30
2013,04,26,07,29,7.30
2013,04,26,07,30,7.40
2013,04,26,07,31,7.40
2013,04,26,07,32,7.40
2013,04,26,07,33,7.40
2013,04,26,07,34,7.40
2013,04,26,07,35,7.40
2013,04,26,07,36,7.40
2013,04,26,07,37,7.50
2013,04,26,07,38,7.50
2013,04,26,07,39,7.50
2013,04,26,07,40,7.50
2013,04,26,07,41,7.50
2013,04,26,07,42,7.50
2013,04,26,07,43,7.60
2013,04,26,07,44,7.60
2013,04,26,07,45,7.60
2013,04,26,07,46,7.60
2013,04,26,07,47,7.60
2013,04,26,07,48,7.60
2013,04,26,07,49,7.60
2013,04,26,07,50,7.70
2013,04,26,07,51,7.70
2013,04,26,07,52,7.70
2013,04,26,07,53,7.70
2013,04,26,07,54,7.70
2013,04,26,07,55,7.70
2013,04,26,07,56,7.70
2013,04,26,07,57,7.70
2013,04,26,07,58,7.80
2013,04,26,07,59,7.80
2013,04,26,08,00,7.80
2013,04,26,08,01,7.80
2013,04,26,08,02,7.80
2013,04,26,08,03,7.80
2013,04,26,08,04,7.80
2013,04,26,08,05,7.80
2013,04,26,08,06,7.90
2013,04,26,08,07,7.90
2013,04,26,08,08,7.90
2013,04,26,08,09,8.00
2013,04,26,08,10,8.00
2013,04,26,08,11,8.00
2013,04,26,08,12,8.10
2013,04,26,08,13,8.10
2013,04,26,08,14,8.20
2013,04,26,08,15,8.20
2013,04,26,08,16,8.20
2013,04,26,08,17,8.20
2013,04,26,08,18,8.20
2013,04,26,08,19,8.20
2013,04,26,08,20,8.30
2013,04,26,08,21,8.30
2013,04,26,08,22,8.30
2013,04,26,08,23,8.40
2013,04,26,08,24,8.40
2013,04,26,08,25,8.40
2013,04,26,08,26,8.40
2013,04,26,08,27,8.50
2013,04,26,08,28,8.50
2013,04,26,08,29,8.50
2013,04,26,08,30,8.50
2013,04,26,08,31,8.60
2013,04,26,08,32,8.60
2013,04,26,08,33,8.60
2013,04,26,08,34,8.60
2013,04,26,08,35,8.60
2013,04,26,08,36,8.70
2013,04,26,08,37,8.70
2013,04,26,08,38,8.70
2013,04,26,08,39,8.70
2013,04,26,08,40,8.70
2013,04,26,08,41,8.70
2013,04,26,08,42,8.70
2013,04,26,08,43,8.70
2013,04,26,08,44,8.80
2013,04,26,08,45,8.80
2013,04,26,08,46,8.80
2013,04,26,08,47,8.90
2013,04,26,08,48,8.90
2013,04,26,08,49,8.90
2013,04,26,08,50,9.00
2013,04,26,08,51,9.00
2013,04,26,08,52,9.00
2013,04,26,08,53,9.00
2013,04,26,08,54,9.10
2013,04,26,08,55,9.10
2013,04,26,08,56,9.10
2013,04,26,08,57,9.20
2013,04,26,08,58,9.20
2013,04,26,08,59,9.20
2013,04,26,09,00,9.20
2013,04,26,09,01,9.20
2013,04,26,09,02,9.20
2013,04,26,09,03,9.30
2013,04,26,09,04,9.30
2013,04,26,09,05,9.30
2013,04,26,09,06,9.30
2013,04,26,09,07,9.30
2013,04,26,09,08,9.40
2013,04,26,09,09,9.40
2013,04,26,09,10,9.40
2013,04,26,09,11,9.50
2013,04,26,09,12,9.50
2013,04,26,09,13,9.50
2013,04,26,09,14,9.60
2013,04,26,09,15,9.60
2013,04,26,09,16,9.70
2013,04,26,09,17,9.70
2013,04,26,09,18,9.70
2013,04,26,09,19,9.80
2013,04,26,09,20,9.90
2013,04,26,09,21,9.90
2013,04,26,09,22,9.90
2013,04,26,09,23,9.90
2013,04,26,09,24,10.00
2013,04,26,09,25,10.10
2013,04,26,09,26,10.10
2013,04,26,09,27,10.10
2013,04,26,09,28,10.10
2013,04,26,09,29,10.10
2013,04,26,09,30,10.10
2013,04,26,09,31,10.10
2013,04,26,09,32,10.10
2013,04,26,09,33,10.10
2013,04,26,09,34,10.10
2013,04,26,09,35,10.10
2013,04,26,09,36,10.10
2013,04,26,09,37,10.10
2013,04,26,09,38,10.10
2013,04,26,09,39,10.10
2013,04,26,09,40,10.10
2013,04,26,09,41,10.10
2013,04,26,09,42,10.10
2013,04,26,09,43,10.10
2013,04,26,09,44,10.10
2013,04,26,09,45,10.10
2013,04,26,09,46,10.10
2013,04,26,09,47,10.10
2013,04,26,09,48,10.10
2013,04,26,09,49,10.10
2013,04,26,09,50,10.10
2013,04,26,09,51,10.10
2013,04,26,09,52,10.20
2013,04,26,09,53,10.20
2013,04,26,09,54,10.20
2013,04,26,09,55,10.20
2013,04,26,09,56,10.30
2013,04,26,09,57,10.30
2013,04,26,09,58,10.30
2013,04,26,09,59,10.30
2013,04,26,10,00,10.30
2013,04,26,10,01,10.30
2013,04,26,10,02,10.40
2013,04,26,10,03,10.40
2013,04,26,10,04,10.40
2013,04,26,10,05,10.40
2013,04,26,10,06,10.40
2013,04,26,10,07,10.40
2013,04,26,10,08,10.60
2013,04,26,10,09,10.60
2013,04,26,10,10,10.60
2013,04,26,10,11,10.60
2013,04,26,10,12,10.60
2013,04,26,10,13,10.60
2013,04,26,10,14,10.60
2013,04,26,10,15,10.60
2013,04,26,10,16,10.60
2013,04,26,10,17,10.70
2013,04,26,10,18,10.70
2013,04,26,10,19,10.80
2013,04,26,10,20,10.80
2013,04,26,10,21,10.80
2013,04,26,10,22,10.90
2013,04,26,10,23,10.90
2013,04,26,10,24,11.10
2013,04,26,10,25,11.20
2013,04,26,10,26,11.20
2013,04,26,10,27,11.20
2013,04,26,10,28,11.20
2013,04,26,10,29,11.20
2013,04,26,10,30,11.20
2013,04,26,10,31,11.10
2013,04,26,10,32,11.10
2013,04,26,10,33,11.10
2013,04,26,10,34,11.10
2013,04,26,10,35,11.00
2013,04,26,10,36,10.90
2013,04,26,10,37,10.90
2013,04,26,10,38,10.80
2013,04,26,10,39,10.80
2013,04,26,10,40,10.70
2013,04,26,10,41,10.70
2013,04,26,10,42,10.70
2013,04,26,10,43,10.70
2013,04,26,10,44,10.60
2013,04,26,10,45,10.60
2013,04,26,10,46,10.60
2013,04,26,10,47,10.60
2013,04,26,10,48,10.60
2013,04,26,10,49,10.60
2013,04,26,10,50,10.60
2013,04,26,10,51,10.60
2013,04,26,10,52,10.60
2013,04,26,10,53,10.50
2013,04,26,10,54,10.40
2013,04,26,10,55,10.20
2013,04,26,10,56,10.00
2013,04,26,10,57,9.90
2013,04,26,10,58,9.90
2013,04,26,10,59,9.90
2013,04,26,11,00,9.90
2013,04,26,11,01,9.80
2013,04,26,11,02,9.80
2013,04,26,11,03,9.80
2013,04,26,11,04,9.70
2013,04,26,11,05,9.70
2013,04,26,11,06,9.70
2013,04,26,11,07,9.70
2013,04,26,11,08,9.70
2013,04,26,11,09,9.70
2013,04,26,11,10,9.70
2013,04,26,11,11,9.70
2013,04,26,11,12,9.70
2013,04,26,11,13,9.80
2013,04,26,11,14,9.80
2013,04,26,11,15,9.80
2013,04,26,11,16,9.80
2013,04,26,11,17,9.80
2013,04,26,11,18,9.90
2013,04,26,11,19,9.90
2013,04,26,11,20,9.90
2013,04,26,11,21,9.90
2013,04,26,11,22,9.90
2013,04,26,11,23,9.90
2013,04,26,11,24,9.90
2013,04,26,11,25,9.90
2013,04,26,11,26,9.90
2013,04,26,11,27,9.90
2013,04,26,11,28,9.80
2013,04,26,11,29,9.80
2013,04,26,11,30,9.70
2013,04,26,11,31,9.70
2013,04,26,11,32,9.70
2013,04,26,11,33,9.70
2013,04,26,11,34,9.70
2013,04,26,11,35,9.70
2013,04,26,11,36,9.70
2013,04,26,11,37,9.80
2013,04,26,11,38,9.80
2013,04,26,11,39,9.80
2013,04,26,11,40,9.80
2013,04,26,11,41,9.80
2013,04,26,11,42,9.90
2013,04,26,11,43,9.90
2013,04,26,11,44,9.80
2013,04,26,11,45,9.90
2013,04,26,11,46,9.90
2013,04,26,11,47,9.90
2013,04,26,11,48,9.90
2013,04,26,11,49,9.90
2013,04,26,11,50,9.90
2013,04,26,11,51,9.90
2013,04,26,11,52,9.90
2013,04,26,11,53,9.90
2013,04,26,11,54,9.90
2013,04,26,11,55,9.90
2013,04,26,11,56,9.90
2013,04,26,11,57,9.90
2013,04,26,11,58,10.00
2013,04,26,11,59,10.10
2013,04,26,12,00,10.10
2013,04,26,12,01,10.10
2013,04,26,12,02,10.10
2013,04,26,12,03,10.10
2013,04,26,12,04,10.10
2013,04,26,12,05,10.10
2013,04,26,12,06,10.20
2013,04,26,12,07,10.30
2013,04,26,12,08,10.30
2013,04,26,12,09,10.30
2013,04,26,12,10,10.20
2013,04,26,12,11,10.20
2013,04,26,12,12,10.10
2013,04,26,12,13,10.10
2013,04,26,12,14,10.10
2013,04,26,12,15,10.10
2013,04,26,12,16,10.20
2013,04,26,12,17,10.10
2013,04,26,12,18,10.10
2013,04,26,12,19,10.10
2013,04,26,12,20,10.10
2013,04,26,12,21,10.10
2013,04,26,12,22,10.10
2013,04,26,12,23,10.10
2013,04,26,12,24,10.10
2013,04,26,12,25,10.10
2013,04,26,12,26,10.00
2013,04,26,12,27,10.10
2013,04,26,12,28,10.10
2013,04,26,12,29,10.10
2013,04,26,12,30,10.10
2013,04,26,12,31,10.10
2013,04,26,12,32,10.10
2013,04,26,12,33,10.00
2013,04,26,12,34,9.90
2013,04,26,12,35,9.90
2013,04,26,12,36,9.90
2013,04,26,12,37,9.90
2013,04,26,12,38,9.90
2013,04,26,12,39,9.90
2013,04,26,12,40,9.90
2013,04,26,12,41,9.90
2013,04,26,12,42,9.90
2013,04,26,12,43,9.90
2013,04,26,12,44,9.90
2013,04,26,12,45,9.90
2013,04,26,12,46,9.90
2013,04,26,12,47,9.90
2013,04,26,12,48,9.90
2013,04,26,12,49,9.90
2013,04,26,12,50,9.90
2013,04,26,12,51,9.90
2013,04,26,12,52,9.90
2013,04,26,12,53,9.90
2013,04,26,12,54,9.90
2013,04,26,12,55,9.90
2013,04,26,12,56,9.90
2013,04,26,12,57,9.90
2013,04,26,12,58,9.90
2013,04,26,12,59,9.90
2013,04,26,13,00,9.90
2013,04,26,13,01,9.90
2013,04,26,13,02,9.90
2013,04,26,13,03,9.90
2013,04,26,13,04,9.90
2013,04,26,13,05,9.90
2013,04,26,13,06,9.90
2013,04,26,13,07,9.90
2013,04,26,13,08,9.90
2013,04,26,13,09,9.90
2013,04,26,13,10,9.90
2013,04,26,13,11,9.90
2013,04,26,13,12,9.90
2013,04,26,13,13,9.90
2013,04,26,13,14,9.90
2013,04,26,13,15,9.80
2013,04,26,13,16,9.80
2013,04,26,13,17,9.80
2013,04,26,13,18,9.80
2013,04,26,13,19,9.80
2013,04,26,13,20,9.90
2013,04,26,13,21,9.90
2013,04,26,13,22,9.90
2013,04,26,13,23,9.90
2013,04,26,13,24,9.90
2013,04,26,13,25,9.90
2013,04,26,13,26,9.90
2013,04,26,13,27,9.90
2013,04,26,13,28,9.90
2013,04,26,13,29,9.90
2013,04,26,13,30,9.90
2013,04,26,13,31,9.80
2013,04,26,13,32,9.80
2013,04,26,13,33,9.90
2013,04,26,13,34,9.90
2013,04,26,13,35,9.90
2013,04,26,13,36,9.90
2013,04,26,13,37,9.90
2013,04,26,13,38,9.90
2013,04,26,13,39,9.90
2013,04,26,13,40,9.90
2013,04,26,13,41,9.90
2013,04,26,13,42,9.90
2013,04,26,13,43,9.90
2013,04,26,13,44,9.90
2013,04,26,13,45,9.90
2013,04,26,13,46,9.90
2013,04,26,13,47,9.80
2013,04,26,13,48,9.80
2013,04,26,13,49,9.80
2013,04,26,13,50,9.80
2013,04,26,13,51,9.80
2013,04,26,13,52,9.90
2013,04,26,13,53,9.90
2013,04,26,13,54,9.90
2013,04,26,13,55,9.90
2013,04,26,13,56,9.90
2013,04,26,13,57,9.90
2013,04,26,13,58,9.90
2013,04,26,13,59,9.90
2013,04,26,14,00,10.10
2013,04,26,14,01,10.10
2013,04,26,14,02,10.10
2013,04,26,14,03,10.20
2013,04,26,14,04,10.20
2013,04,26,14,05,10.20
2013,04,26,14,06,10.20
2013,04,26,14,07,10.20
2013,04,26,14,08,10.30
2013,04,26,14,09,10.30
2013,04,26,14,10,10.30
2013,04,26,14,11,10.40
2013,04,26,14,12,10.40
2013,04,26,14,13,10.40
2013,04,26,14,14,10.40
2013,04,26,14,15,10.40
2013,04,26,14,16,10.50
2013,04,26,14,17,10.60
2013,04,26,14,18,10.60
2013,04,26,14,19,10.60
2013,04,26,14,20,10.70
2013,04,26,14,21,10.70
2013,04,26,14,22,10.70
2013,04,26,14,23,10.80
2013,04,26,14,24,10.80
2013,04,26,14,25,10.90
2013,04,26,14,26,10.90
2013,04,26,14,27,11.00
2013,04,26,14,28,10.90
2013,04,26,14,29,10.90
2013,04,26,14,30,11.00
2013,04,26,14,31,10.90
2013,04,26,14,32,11.00
2013,04,26,14,33,11.00
2013,04,26,14,34,11.10
2013,04,26,14,35,11.10
2013,04,26,14,36,11.10
2013,04,26,14,37,11.10
2013,04,26,14,38,11.10
2013,04,26,14,39,11.10
2013,04,26,14,40,11.10
2013,04,26,14,41,11.10
2013,04,26,14,42,11.10
2013,04,26,14,43,11.00
2013,04,26,14,44,10.90
2013,04,26,14,45,10.90
2013,04,26,14,46,10.90
2013,04,26,14,47,10.90
2013,04,26,14,48,11.10
2013,04,26,14,49,11.10
2013,04,26,14,50,11.10
2013,04,26,14,51,11.10
2013,04,26,14,52,11.10
2013,04,26,14,53,11.10
2013,04,26,14,54,11.10
2013,04,26,14,55,11.10
2013,04,26,14,56,11.10
2013,04,26,14,57,11.10
2013,04,26,14,58,11.10
2013,04,26,14,59,11.10
2013,04,26,15,00,11.10
2013,04,26,15,01,11.10
2013,04,26,15,02,11.10
2013,04,26,15,03,11.10
2013,04,26,15,04,11.10
2013,04,26,15,05,11.10
2013,04,26,15,06,11.20
2013,04,26,15,07,11.30
2013,04,26,15,08,11.20
2013,04,26,15,09,11.30
2013,04,26,15,10,11.40
2013,04,26,15,11,11.40
2013,04,26,15,12,11.40
2013,04,26,15,13,11.40
2013,04,26,15,14,11.40
2013,04,26,15,15,11.40
2013,04,26,15,16,11.50
2013,04,26,15,17,11.60
2013,04,26,15,18,11.60
2013,04,26,15,19,11.60
2013,04,26,15,20,11.60
2013,04,26,15,21,11.70
2013,04,26,15,22,11.70
2013,04,26,15,23,11.60
2013,04,26,15,24,11.60
2013,04,26,15,25,11.60
2013,04,26,15,26,11.60
2013,04,26,15,27,11.60
2013,04,26,15,28,11.60
2013,04,26,15,29,11.70
2013,04,26,15,30,11.80
2013,04,26,15,31,11.80
2013,04,26,15,32,12.00
2013,04,26,15,33,12.10
2013,04,26,15,34,12.30
2013,04,26,15,35,12.40
2013,04,26,15,36,12.40
2013,04,26,15,37,12.50
2013,04,26,15,38,12.50
2013,04,26,15,39,12.50
2013,04,26,15,40,12.60
2013,04,26,15,41,12.60
2013,04,26,15,42,12.60
2013,04,26,15,43,12.70
2013,04,26,15,44,12.70
2013,04,26,15,45,12.60
2013,04,26,15,46,12.70
2013,04,26,15,47,12.70
2013,04,26,15,48,12.60
2013,04,26,15,49,12.60
2013,04,26,15,50,12.60
2013,04,26,15,51,12.60
2013,04,26,15,52,12.60
2013,04,26,15,53,12.60
2013,04,26,15,54,12.60
2013,04,26,15,55,12.70
2013,04,26,15,56,12.70
2013,04,26,15,57,12.80
2013,04,26,15,58,12.80
2013,04,26,15,59,12.90
2013,04,26,16,00,12.90
2013,04,26,16,01,12.90
2013,04,26,16,02,12.90
2013,04,26,16,03,13.00
2013,04,26,16,04,13.10
2013,04,26,16,05,13.20
2013,04,26,16,06,13.30
2013,04,26,16,07,13.40
2013,04,26,16,08,13.50
2013,04,26,16,09,13.50
2013,04,26,16,10,13.60
2013,04,26,16,11,13.70
2013,04,26,16,12,13.70
2013,04,26,16,13,13.70
2013,04,26,16,14,13.70
2013,04,26,16,15,13.70
2013,04,26,16,16,13.70
2013,04,26,16,17,13.80
2013,04,26,16,18,13.80
2013,04,26,16,19,13.90
2013,04,26,16,20,14.00
2013,04,26,16,21,14.20
2013,04,26,16,22,14.30
2013,04,26,16,23,14.30
2013,04,26,16,24,14.40
2013,04,26,16,25,14.40
2013,04,26,16,26,14.40
2013,04,26,16,27,14.40
2013,04,26,16,28,14.40
2013,04,26,16,29,14.40
2013,04,26,16,30,14.30
2013,04,26,16,31,14.30
2013,04,26,16,32,14.30
2013,04,26,16,33,14.30
2013,04,26,16,34,14.30
2013,04,26,16,35,14.20
2013,04,26,16,36,14.20
2013,04,26,16,37,14.20
2013,04,26,16,38,14.10
2013,04,26,16,39,14.10
2013,04,26,16,40,14.10
2013,04,26,16,41,14.00
2013,04,26,16,42,14.00
2013,04,26,16,43,14.00
2013,04,26,16,44,14.00
2013,04,26,16,45,14.00
2013,04,26,16,46,14.00
2013,04,26,16,47,14.00
2013,04,26,16,48,14.00
2013,04,26,16,49,13.90
2013,04,26,16,50,13.90
2013,04,26,16,51,13.90
2013,04,26,16,52,13.90
2013,04,26,16,53,13.90
2013,04,26,16,54,14.00
2013,04,26,16,55,14.00
2013,04,26,16,56,14.00
2013,04,26,16,57,14.00
2013,04,26,16,58,14.00
2013,04,26,16,59,14.00
2013,04,26,17,00,14.00
2013,04,26,17,01,14.00
2013,04,26,17,02,14.00
2013,04,26,17,03,14.00
2013,04,26,17,04,14.00
2013,04,26,17,05,14.00
2013,04,26,17,06,14.00
2013,04,26,17,07,14.00
2013,04,26,17,08,14.00
2013,04,26,17,09,14.10
2013,04,26,17,10,14.10
2013,04,26,17,11,14.00
2013,04,26,17,12,14.00
2013,04,26,17,13,14.00
2013,04,26,17,14,14.10
2013,04,26,17,15,14.10
2013,04,26,17,16,14.10
2013,04,26,17,17,14.10
2013,04,26,17,18,14.20
2013,04,26,17,19,14.20
2013,04,26,17,20,14.20
2013,04,26,17,21,14.20
2013,04,26,17,22,14.20
2013,04,26,17,23,14.30
2013,04,26,17,24,14.40
2013,04,26,17,25,14.50
2013,04,26,17,26,14.50
2013,04,26,17,27,14.60
2013,04,26,17,28,14.60
2013,04,26,17,29,14.60
2013,04,26,17,30,14.60
2013,04,26,17,31,14.60
2013,04,26,17,32,14.70
2013,04,26,17,33,14.70
2013,04,26,17,34,14.70
2013,04,26,17,35,14.70
2013,04,26,17,36,14.70
2013,04,26,17,37,14.70
2013,04,26,17,38,14.70
2013,04,26,17,39,14.70
2013,04,26,17,40,14.70
2013,04,26,17,41,14.70
2013,04,26,17,42,14.70
2013,04,26,17,43,14.70
2013,04,26,17,44,14.80
2013,04,26,17,45,14.80
2013,04,26,17,46,14.80
2013,04,26,17,47,14.70
2013,04,26,17,48,14.70
2013,04,26,17,49,14.70
2013,04,26,17,50,14.70